Weather History for Grand Junction, CO

Change the Weather History Date:

Wednesday, April 3, 2013

  Actual Average Record
Temperature  
Mean Temperature 51 °F 48 °F  
Max Temperature 66 °F 62 °F 81 °F (1943)
Min Temperature 36 °F 35 °F 22 °F (1945)
Degree Days  
Heating Degree Days 14 17  
Month to date heating degree days 42 51  
Since 1 July heating degree days 5454 5083  
Cooling Degree Days 0 0  
Month to date cooling degree days 0 0  
Year to date cooling degree days 0 0  
Growing Degree Days 2 (Base 50)    
Moisture  
Dew Point 29 °F    
Average Humidity 50    
Maximum Humidity 79    
Minimum Humidity 21    
Precipitation  
Precipitation 0.00 in 0.04 in 0.45 in (2009)
Month to date precipitation 0.08 0.10  
Year to date precipitation 1.43 2.14  
Snow  
Snow 0.00 in 0.10 in 2.20 in (1983)
Month to date snowfall 0.0 0.2  
Since 1 July snowfall 20.0 18.3  
Snow Depth 0.00 in    
Sea Level Pressure  
Sea Level Pressure 30.04 in    
Wind  
Wind Speed 4 mph (NW)    
Max Wind Speed 15 mph    
Max Gust Speed 20 mph    
Visibility 10 miles    
Events      
T = Trace of Precipitation, MM = Missing Value Source: NWS Daily Summary

Daily Weather History Graph

Daily Weather History Graph

Search for Another Location

Airport:

Trip Planner

Search our weather history database for the weather conditions in past years. The results will help you decide how hot, cold, wet, or windy it might be!

Date:

Astronomy

Apr. 03, 2013 Rise Set
Actual Time 6:55 AM MDT 7:40 PM MDT
Civil Twilight 6:28 AM MDT 8:07 PM MDT
Nautical Twilight 5:56 AM MDT 8:39 PM MDT
Astronomical Twilight 5:23 AM MDT 9:12 PM MDT
Moon 2:35 AM MDT (4/3) 12:58 PM MDT (4/3)
Length of Visible Light 13h 39m
Length of Day
12h 45m
Last Quarter, 44% of the Moon is Illuminated
Apr 3
Last Quarter
Apr 10
New
Apr 18
First Quarter
Apr 25
Full
May 2
Last Quarter

Hourly Weather History & Observations

Time (MDT) Temp. Windchill Dew Point Humidity Pressure Visibility Wind Dir Wind Speed Gust Speed Precip Events Conditions
12:53 AM 37.9 °F - 30.9 °F 76% 30.00 in 10.0 mi Calm Calm - N/A   Clear
1:53 AM 37.0 °F - 30.0 °F 76% 30.01 in 10.0 mi Calm Calm - N/A   Clear
2:53 AM 37.0 °F - 30.9 °F 79% 30.01 in 10.0 mi Calm Calm - N/A   Partly Cloudy
3:53 AM 39.9 °F - 33.1 °F 77% 30.01 in 10.0 mi Calm Calm - N/A   Overcast
4:53 AM 42.1 °F 40.2 °F 33.1 °F 70% 30.04 in 10.0 mi East 3.5 mph - N/A   Overcast
5:53 AM 41.0 °F 37.1 °F 34.0 °F 76% 30.05 in 10.0 mi SE 5.8 mph - N/A   Mostly Cloudy
6:53 AM 41.0 °F - 34.0 °F 76% 30.07 in 10.0 mi Calm Calm - N/A   Scattered Clouds
7:53 AM 43.0 °F - 33.1 °F 68% 30.10 in 10.0 mi Calm Calm - N/A   Scattered Clouds
8:53 AM 44.1 °F - 34.0 °F 68% 30.12 in 10.0 mi Calm Calm - N/A   Clear
9:53 AM 46.9 °F - 34.0 °F 61% 30.12 in 10.0 mi NW 4.6 mph - N/A   Clear
10:53 AM 52.0 °F - 35.1 °F 53% 30.11 in 10.0 mi Variable 5.8 mph - N/A   Clear
11:53 AM 55.0 °F - 33.1 °F 43% 30.09 in 10.0 mi Calm Calm - N/A   Clear
12:53 PM 57.9 °F - 32.0 °F 37% 30.08 in 10.0 mi Variable 5.8 mph - N/A   Clear
1:53 PM 61.0 °F - 30.0 °F 31% 30.05 in 10.0 mi NW 11.5 mph 16.1 mph N/A   Clear
2:53 PM 63.0 °F - 28.9 °F 28% 30.03 in 10.0 mi WNW 8.1 mph - N/A   Clear
3:53 PM 64.0 °F - 28.0 °F 26% 30.00 in 10.0 mi West 4.6 mph - N/A   Clear
4:53 PM 64.0 °F - 28.0 °F 26% 29.98 in 10.0 mi West 6.9 mph - N/A   Clear
5:53 PM 66.0 °F - 26.1 °F 22% 29.97 in 10.0 mi West 13.8 mph 19.6 mph N/A   Mostly Cloudy
6:53 PM 63.0 °F - 23.0 °F 22% 29.98 in 10.0 mi WNW 8.1 mph - N/A   Clear
7:53 PM 57.0 °F - 25.0 °F 29% 30.00 in 10.0 mi WNW 5.8 mph - N/A   Clear
8:53 PM 52.0 °F - 19.0 °F 27% 30.04 in 10.0 mi NNE 6.9 mph - N/A   Clear
9:53 PM 50.0 °F - 19.0 °F 29% 30.06 in 10.0 mi Calm Calm - N/A   Clear
10:53 PM 45.0 °F 41.8 °F 19.9 °F 37% 30.07 in 10.0 mi ENE 5.8 mph - N/A   Clear
11:53 PM 50.0 °F - 21.0 °F 32% 30.05 in 10.0 mi ESE 3.5 mph - N/A   Mostly Cloudy